When you browse on this site, cookies collect data to enhance your experience and personalize the content and advertising you see.
Visit our Privacy Policy to learn more. By continuing to use the site, you agree to this use of cookies and data.
  • In United Kingdom
  • List of Countries
  • For 7 days
  • Water Temperature
  • Satellite Maps
  • Weather Map
  • Weather Widgets
  • user-avatar
    Login

    Hourly Weather Ohul'chans'k

    Today, 25 June, Tuesday

    Time Temperature Precipitation Wind Pressure Humidity
    00:00 +24°C° 0.5 mm 2 mps 748 mmHg 69%
    01:00 +24°C° 0.3 mm 2 mps 748 mmHg 72%
    02:00 +23°C° 0.3 mm 2 mps 748 mmHg 75%
    03:00 +22°C° 0 mm 3 mps 748 mmHg 68%
    04:00 +22°C° 0 mm 3 mps 748 mmHg 70%
    05:00 +22°C° 0 mm 3 mps 749 mmHg 73%
    06:00 +22°C° 0 mm 3 mps 749 mmHg 75%
    07:00 +23°C° 0 mm 4 mps 749 mmHg 74%
    08:00 +24°C° 0 mm 6 mps 749 mmHg 73%
    09:00 +24°C° 0 mm 7 mps 750 mmHg 71%
    10:00 +26°C° 0.1 mm 7 mps 750 mmHg 70%
    11:00 +26°C° 0.1 mm 6 mps 751 mmHg 68%
    12:00 +27°C° 0.1 mm 6 mps 751 mmHg 66%
    13:00 +26°C° 0.6 mm 6 mps 751 mmHg 67%
    14:00 +26°C° 0.6 mm 6 mps 751 mmHg 68%
    15:00 +26°C° 0.6 mm 6 mps 752 mmHg 68%
    16:00 +24°C° 0 mm 6 mps 752 mmHg 68%
    17:00 +25°C° 0 mm 5 mps 752 mmHg 68%
    18:00 +25°C° 0 mm 4 mps 752 mmHg 68%
    19:00 +23°C° 0 mm 5 mps 752 mmHg 66%
    20:00 +23°C° 0 mm 5 mps 752 mmHg 65%
    21:00 +22°C° 0 mm 6 mps 753 mmHg 63%
    22:00 +21°C° 0 mm 5 mps 753 mmHg 64%
    23:00 +20°C° 0 mm 5 mps 753 mmHg 64%

    Tomorrow, 26 June, Wednesday

    Time Temperature Precipitation Wind Pressure Humidity
    00:00 +19°C° 0 mm 5 mps 753 mmHg 65%
    01:00 +17°C° 0 mm 5 mps 753 mmHg 68%
    02:00 +17°C° 0 mm 4 mps 753 mmHg 71%
    03:00 +17°C° 0 mm 3 mps 754 mmHg 74%
    04:00 +17°C° 0 mm 4 mps 754 mmHg 74%
    05:00 +17°C° 0 mm 4 mps 754 mmHg 74%
    06:00 +17°C° 0 mm 4 mps 754 mmHg 74%
    07:00 +19°C° 0 mm 5 mps 754 mmHg 67%
    08:00 +20°C° 0 mm 5 mps 754 mmHg 60%
    09:00 +22°C° 0 mm 5 mps 754 mmHg 53%
    10:00 +23°C° 0 mm 5 mps 754 mmHg 50%
    11:00 +25°C° 0 mm 5 mps 754 mmHg 46%
    12:00 +26°C° 0 mm 5 mps 754 mmHg 43%
    13:00 +27°C° 0 mm 5 mps 753 mmHg 40%
    14:00 +27°C° 0 mm 5 mps 753 mmHg 38%
    15:00 +28°C° 0 mm 4 mps 753 mmHg 36%
    16:00 +27°C° 0 mm 4 mps 753 mmHg 39%
    17:00 +27°C° 0 mm 4 mps 752 mmHg 41%
    18:00 +26°C° 0 mm 4 mps 752 mmHg 44%
    19:00 +23°C° 0 mm 4 mps 752 mmHg 50%
    20:00 +22°C° 0 mm 3 mps 752 mmHg 56%
    21:00 +20°C° 0 mm 3 mps 752 mmHg 62%
    22:00 +19°C° 0 mm 3 mps 752 mmHg 64%
    23:00 +18°C° 0 mm 3 mps 751 mmHg 67%

    Day after tomorrow, 27 June, Thursday

    Time Temperature Precipitation Wind Pressure Humidity
    00:00 +17°C° 0 mm 2 mps 751 mmHg 69%
    01:00 +17°C° 0 mm 2 mps 751 mmHg 70%
    02:00 +16°C° 0 mm 1 mps 751 mmHg 72%
    03:00 +15°C° 0 mm 1 mps 751 mmHg 73%
    04:00 +16°C° 0 mm 1 mps 750 mmHg 71%
    05:00 +16°C° 0 mm 0 mps 750 mmHg 70%
    06:00 +16°C° 0 mm 0 mps 750 mmHg 68%
    07:00 +18°C° 0 mm 0 mps 749 mmHg 63%
    08:00 +22°C° 0 mm 1 mps 749 mmHg 57%
    09:00 +24°C° 0 mm 1 mps 749 mmHg 52%
    10:00 +25°C° 0 mm 1 mps 748 mmHg 48%
    11:00 +26°C° 0 mm 1 mps 748 mmHg 43%
    12:00 +27°C° 0 mm 2 mps 747 mmHg 39%
    13:00 +28°C° 0 mm 2 mps 746 mmHg 37%
    14:00 +28°C° 0 mm 2 mps 746 mmHg 36%
    15:00 +29°C° 0 mm 3 mps 745 mmHg 34%
    16:00 +29°C° 0 mm 3 mps 744 mmHg 36%
    17:00 +29°C° 0 mm 3 mps 744 mmHg 38%
    18:00 +29°C° 0 mm 3 mps 743 mmHg 40%
    19:00 +27°C° 0 mm 3 mps 743 mmHg 45%
    20:00 +25°C° 0 mm 3 mps 742 mmHg 49%
    21:00 +22°C° 0 mm 3 mps 742 mmHg 53%
    22:00 +21°C° 0 mm 3 mps 741 mmHg 54%
    23:00 +20°C° 0 mm 3 mps 741 mmHg 55%

    28 June, Friday

    Time Temperature Precipitation Wind Pressure Humidity
    00:00 +20°C° 0 mm 3 mps 740 mmHg 57%
    01:00 +19°C° 0 mm 3 mps 740 mmHg 58%
    02:00 +19°C° 0 mm 3 mps 739 mmHg 59%
    03:00 +18°C° 0 mm 3 mps 739 mmHg 60%
    04:00 +19°C° 0.1 mm 3 mps 738 mmHg 63%
    05:00 +19°C° 0.1 mm 3 mps 738 mmHg 65%
    06:00 +19°C° 0.1 mm 3 mps 738 mmHg 68%
    07:00 +19°C° 0.8 mm 3 mps 738 mmHg 75%
    08:00 +19°C° 0.8 mm 3 mps 738 mmHg 81%
    09:00 +19°C° 0.8 mm 3 mps 738 mmHg 88%
    10:00 +21°C° 0.2 mm 4 mps 738 mmHg 77%
    11:00 +23°C° 0.2 mm 4 mps 738 mmHg 67%
    12:00 +26°C° 0.2 mm 5 mps 738 mmHg 56%
    13:00 +27°C° 0.1 mm 5 mps 738 mmHg 52%
    14:00 +27°C° 0.1 mm 6 mps 738 mmHg 49%
    15:00 +27°C° 0.1 mm 6 mps 738 mmHg 45%
    16:00 +26°C° 0 mm 6 mps 738 mmHg 47%
    17:00 +24°C° 0 mm 6 mps 738 mmHg 50%
    18:00 +23°C° 0 mm 6 mps 738 mmHg 52%
    19:00 +22°C° 0 mm 5 mps 739 mmHg 58%
    20:00 +20°C° 0 mm 4 mps 739 mmHg 64%
    21:00 +18°C° 0 mm 3 mps 739 mmHg 70%
    22:00 +17°C° 0 mm 3 mps 740 mmHg 74%
    23:00 +16°C° 0 mm 3 mps 740 mmHg 77%

    29 June, Saturday

    Time Temperature Precipitation Wind Pressure Humidity
    00:00 +14°C° 0 mm 3 mps 740 mmHg 80%
    01:00 +14°C° 0 mm 3 mps 740 mmHg 82%
    02:00 +13°C° 0 mm 3 mps 740 mmHg 85%
    03:00 +13°C° 0 mm 3 mps 740 mmHg 87%
    04:00 +13°C° 0 mm 3 mps 740 mmHg 86%
    05:00 +13°C° 0 mm 3 mps 740 mmHg 85%
    06:00 +14°C° 0 mm 3 mps 740 mmHg 83%
    07:00 +16°C° 0.1 mm 3 mps 740 mmHg 76%
    08:00 +18°C° 0.1 mm 3 mps 740 mmHg 69%
    09:00 +19°C° 0.1 mm 3 mps 740 mmHg 61%
    10:00 +20°C° 0.6 mm 3 mps 740 mmHg 60%
    11:00 +20°C° 0.6 mm 3 mps 740 mmHg 59%
    12:00 +20°C° 0.6 mm 3 mps 740 mmHg 58%
    13:00 +21°C° 0.1 mm 4 mps 740 mmHg 54%
    14:00 +22°C° 0.1 mm 4 mps 740 mmHg 49%
    15:00 +23°C° 0.1 mm 5 mps 740 mmHg 45%
    16:00 +22°C° 0.1 mm 5 mps 741 mmHg 48%
    17:00 +21°C° 0.1 mm 5 mps 741 mmHg 51%
    18:00 +21°C° 0.1 mm 4 mps 741 mmHg 55%
    19:00 +19°C° 0.1 mm 4 mps 741 mmHg 62%
    20:00 +17°C° 0.1 mm 3 mps 741 mmHg 69%
    21:00 +14°C° 0.1 mm 3 mps 741 mmHg 76%
    22:00 +14°C° 0 mm 3 mps 742 mmHg 76%
    23:00 +14°C° 0 mm 3 mps 742 mmHg 75%

    30 June, Sunday

    Time Temperature Precipitation Wind Pressure Humidity
    00:00 +13°C° 0 mm 3 mps 742 mmHg 75%
    01:00 +12°C° 0 mm 3 mps 742 mmHg 77%
    02:00 +11°C° 0 mm 3 mps 742 mmHg 79%
    03:00 +10°C° 0 mm 3 mps 742 mmHg 81%
    04:00 +10°C° 0 mm 3 mps 743 mmHg 80%
    05:00 +11°C° 0 mm 4 mps 743 mmHg 80%
    06:00 +11°C° 0 mm 4 mps 743 mmHg 79%
    07:00 +12°C° 0 mm 4 mps 744 mmHg 72%
    08:00 +14°C° 0 mm 4 mps 744 mmHg 64%
    09:00 +15°C° 0 mm 4 mps 744 mmHg 57%
    10:00 +16°C° 0 mm 5 mps 744 mmHg 53%
    11:00 +17°C° 0 mm 5 mps 745 mmHg 50%
    12:00 +19°C° 0 mm 5 mps 745 mmHg 47%
    13:00 +19°C° 0 mm 5 mps 745 mmHg 47%
    14:00 +19°C° 0 mm 5 mps 745 mmHg 47%
    15:00 +20°C° 0 mm 4 mps 745 mmHg 48%
    16:00 +19°C° 0 mm 4 mps 745 mmHg 49%
    17:00 +19°C° 0 mm 4 mps 745 mmHg 50%
    18:00 +19°C° 0 mm 4 mps 746 mmHg 50%
    19:00 +18°C° 0 mm 3 mps 746 mmHg 58%
    20:00 +16°C° 0 mm 3 mps 746 mmHg 65%
    21:00 +14°C° 0 mm 2 mps 747 mmHg 72%
    22:00 +14°C° 0 mm 2 mps 747 mmHg 75%
    23:00 +13°C° 0 mm 2 mps 747 mmHg 78%
    Show more